Ernest Shackleton — ZDLS1 — position and weather

sailwx.info

Track history (hours):
 
Tides and Currents Weather Stations Pressure Air Temp Water Temp Dewpoint Dewpoint Depression Visibility Wind Speed Wind Dir Waves Ship Positions

Oceanographic research ship Ernest Shackleton (UK/Norway)

Detailed information on ship capabilities available from University of Delaware's Ocean Information Center and ARCUS's ALIAS (Arctic Logistics Information and Support) project.

Last reported at 2015-May-29 07:00 UTC. Time now 2015-May-29 14:27 UTC.
Position N 57°24' E 010°30'.

Length 80 m; beam 17 m; draft 7.4 m.

Type: Ship. MMSI: 740357000.

AWS

Barometer 1005.5 mb
Air temperature 10.2 ° C
Dewpoint 5.4 ° C

Date/timePositionNaut miles runAvg speedWind from/ knotsBaromVisibWave heightAir tempDewpointWater temp
2015-May-29 07:00N 57°24' E 010°30'0 0.0 1005.5 10.2 5.4
2015-May-29 05:00N 57°24' E 010°30'0 0.0 1005.5 7.9 5.0
2015-May-29 04:00N 57°24' E 010°30'0 0.0 1005.4 6.5 4.3
2015-May-29 03:00N 57°24' E 010°30'0 0.0 1005.3 5.7 3.9
2015-May-29 01:00N 57°24' E 010°30'0 0.0 1005.6 6.4 3.9
2015-May-28 22:00N 57°24' E 010°30'0 0.0 1005.1 7.1 4.6
2015-May-28 21:00N 57°24' E 010°30'0 0.0 1004.9 7.6 4.6
2015-May-28 17:00N 57°24' E 010°30'0 0.0 1003.3 10.1 5.3
2015-May-28 16:00N 57°24' E 010°30'0 0.0 1003.1 10.0 6.1
2015-May-28 06:00N 57°24' E 010°30'0 0.0 1006.2 10.4 6.9
2015-May-28 05:00N 57°24' E 010°30'0 0.0 1007.3 10.0 6.4
2015-May-28 04:00N 57°24' E 010°30'0 0.0 1008.5 9.2 5.1
2015-May-28 00:00N 57°24' E 010°30'3 0.4 1012.4 7.4 4.4
2015-May-27 17:05N 57°26' E 010°33'330.9
2015-May-27 17:00N 57°24' E 010°30'3 4.2 1014.3 11.8 4.1
2015-May-27 16:20N 57°26' E 010°33'3 8.1
2015-May-27 16:00N 57°24' E 010°30'3 4.5 1014.3 12.6 4.6
2015-May-27 15:23N 57°26' E 010°33'  
Track history (hours):
 
Tides and Currents Weather Stations Pressure Air Temp Water Temp Dewpoint Dewpoint Depression Visibility Wind Speed Wind Dir Waves Ship Positions

Oceanographic research ship Ernest Shackleton (UK/Norway)

Detailed information on ship capabilities available from University of Delaware's Ocean Information Center and ARCUS's ALIAS (Arctic Logistics Information and Support) project.

Last reported at 2015-May-29 07:00 UTC. Time now 2015-May-29 14:27 UTC.
Position N 57°24' E 010°30'.

Length 80 m; beam 17 m; draft 7.4 m.

Type: Ship. MMSI: 740357000.

AWS

Barometer 1005.5 mb
Air temperature 10.2 ° C
Dewpoint 5.4 ° C

Date/timePositionNaut miles runAvg speedWind from/ knotsBaromVisibWave heightAir tempDewpointWater temp
2015-May-29 07:00N 57°24' E 010°30'0 0.0 1005.5 10.2 5.4
2015-May-29 05:00N 57°24' E 010°30'0 0.0 1005.5 7.9 5.0
2015-May-29 04:00N 57°24' E 010°30'0 0.0 1005.4 6.5 4.3
2015-May-29 03:00N 57°24' E 010°30'0 0.0 1005.3 5.7 3.9
2015-May-29 01:00N 57°24' E 010°30'0 0.0 1005.6 6.4 3.9
2015-May-28 22:00N 57°24' E 010°30'0 0.0 1005.1 7.1 4.6
2015-May-28 21:00N 57°24' E 010°30'0 0.0 1004.9 7.6 4.6
2015-May-28 17:00N 57°24' E 010°30'0 0.0 1003.3 10.1 5.3
2015-May-28 16:00N 57°24' E 010°30'0 0.0 1003.1 10.0 6.1
2015-May-28 06:00N 57°24' E 010°30'0 0.0 1006.2 10.4 6.9
2015-May-28 05:00N 57°24' E 010°30'0 0.0 1007.3 10.0 6.4
2015-May-28 04:00N 57°24' E 010°30'0 0.0 1008.5 9.2 5.1
2015-May-28 00:00N 57°24' E 010°30'3 0.4 1012.4 7.4 4.4
2015-May-27 17:05N 57°26' E 010°33'330.9
2015-May-27 17:00N 57°24' E 010°30'3 4.2 1014.3 11.8 4.1
2015-May-27 16:20N 57°26' E 010°33'3 8.1
2015-May-27 16:00N 57°24' E 010°30'3 4.5 1014.3 12.6 4.6
2015-May-27 15:23N 57°26' E 010°33'  

Dump ship's entire track history